FW7110 Weather Reports


time (UTC)temp
C
wind
direction
speed
KPH
gust
KPH
rain 1hr
cm
rain 24hr
cm
rain mn
cm
humidity
%
barometer
mb
20260504081555 10 263 0.0 1.6 0.00 0.00 0.00 83 1006.8
20260504060105 7 0 0.0 0.0 0.00 0.00 0.00 88 1007.7
20260504050123 10 0 0.0 0.0 0.00 0.00 0.00 81 1008.3
20260504044555 11 0 0.0 0.0 0.00 0.00 0.00 78 1008.4
20260504043101 12 0 0.0 1.6 0.00 0.00 0.00 75 1008.5
20260504041601 12 0 0.0 1.6 0.00 0.00 0.00 73 1008.6
20260504040113 13 0 0.0 1.6 0.00 0.00 0.00 71 1008.6
20260504034614 13 0 0.0 1.6 0.00 0.00 0.00 70 1008.6
20260504033105 13 0 0.0 0.0 0.00 0.00 0.00 69 1008.9
20260504031606 15 0 0.0 3.2 0.00 0.00 0.00 66 1008.8
20260504030114 15 262 1.6 4.8 0.00 0.00 0.00 64 1008.8
20260504024555 15 237 1.6 6.4 0.00 0.00 0.00 63 1008.9
20260504023055 16 256 1.6 6.4 0.00 0.00 0.00 61 1008.8
20260504021606 16 257 3.2 8.0 0.00 0.00 0.00 60 1008.7
20260504020057 16 245 3.2 9.7 0.00 0.00 0.00 59 1008.6
20260504014557 17 240 3.2 6.4 0.00 0.00 0.00 58 1008.7
20260504013055 17 250 3.2 9.7 0.00 0.00 0.00 56 1008.6
20260504011554 17 238 4.8 9.7 0.00 0.00 0.00 55 1008.4
20260504010056 18 250 3.2 11.3 0.00 0.00 0.00 54 1008.3
20260504004555 18 285 4.8 12.9 0.00 0.00 0.00 53 1008.3
20260504003053 18 252 4.8 11.3 0.00 0.00 0.00 52 1008.3
20260504001554 18 230 4.8 9.7 0.00 0.00 0.00 52 1008.4
20260504000135 19 243 3.2 14.5 0.00 0.00 0.00 51 1008.3
20260503234556 19 252 6.4 12.9 0.00 0.00 0.00 50 1008.4
20260503233055 19 246 6.4 16.1 0.00 0.00 0.00 49 1008.5
20260503231556 19 248 11.3 20.9 0.00 0.00 0.00 48 1008.4
20260503230059 20 260 8.0 16.1 0.00 0.00 0.00 47 1008.7
20260503224554 20 276 6.4 22.5 0.00 0.00 0.00 47 1008.6
20260503223056 20 245 11.3 24.1 0.00 0.00 0.00 45 1008.7
20260503221552 20 219 11.3 33.8 0.00 0.00 0.00 45 1008.8
20260503220059 20 250 9.7 22.5 0.00 0.00 0.00 45 1009.0
20260503214555 19 276 9.7 22.5 0.00 0.00 0.00 45 1009.1
20260503213055 19 252 12.9 30.6 0.00 0.00 0.00 43 1009.1
20260503211556 19 236 14.5 27.4 0.00 0.00 0.00 43 1009.1
20260503210054 18 250 16.1 35.4 0.00 0.00 0.00 43 1009.2
20260503204556 19 90 14.5 33.8 0.00 0.00 0.00 43 1009.3
20260503203101 19 232 14.5 29.0 0.00 0.00 0.00 41 1009.4
20260503201600 18 249 11.3 38.6 0.00 0.00 0.00 43 1010.0
20260503200057 19 300 11.3 30.6 0.00 0.00 0.00 41 1009.9
20260503194558 20 260 14.5 38.6 0.00 0.00 0.00 39 1010.2
20260503193059 20 250 11.3 30.6 0.00 0.00 0.00 39 1010.2
20260503191555 19 246 11.3 40.2 0.00 0.00 0.00 40 1010.3
20260503190053 18 250 17.7 32.2 0.00 0.00 0.00 40 1010.2
20260503184611 18 180 11.3 32.2 0.00 0.00 0.00 41 1010.4
20260503183100 18 214 8.0 30.6 0.00 0.00 0.00 42 1010.7
20260503181556 18 209 9.7 27.4 0.00 0.00 0.00 43 1010.8
20260503180058 17 205 6.4 30.6 0.00 0.00 0.00 44 1011.2
20260503173058 16 253 6.4 17.7 0.00 0.00 0.00 48 1012.4
20260503171611 16 224 6.4 20.9 0.00 0.00 0.00 47 1012.8
20260503170104 16 179 6.4 19.3 0.00 0.00 0.00 50 1013.7
20260503090117 7 206 1.6 9.7 0.00 0.00 0.00 68 1017.2